GW1972 Weather Reports


time (UTC)temp
F
wind
direction
speed
knots
gust
knots
rain 1hr
in
rain 24hr
in
rain mn
in
humidity
%
barometer
mb
20260906103954 71 69 0.0 1.7 0.00 0.00 0.00 91 993.2
20260906103452 71 69 0.9 1.7 0.00 0.00 0.00 91 993.2
20260906102954 71 62 0.0 1.7 0.00 0.00 0.00 91 993.2
20260906102452 71 58 0.0 1.7 0.00 0.00 0.00 91 993.2
20260906101953 71 61 0.0 1.7 0.00 0.00 0.00 91 993.1
20260906100953 71 85 0.0 1.7 0.00 0.00 0.00 91 993.0
20260906100452 71 76 0.0 1.7 0.00 0.00 0.00 91 993.0
20260906095953 71 65 0.0 0.9 0.00 0.00 0.00 91 993.0
20260906095451 71 54 0.0 0.9 0.00 0.00 0.00 91 993.0
20260906094953 71 93 0.0 0.9 0.00 0.00 0.00 91 993.1
20260906094451 71 93 0.0 0.9 0.00 0.00 0.00 91 993.0
20260906093952 71 93 0.0 0.9 0.00 0.00 0.00 91 993.0
20260906093451 71 99 0.0 0.9 0.00 0.00 0.00 91 993.0
20260906092450 71 99 0.0 0.9 0.00 0.00 0.00 91 992.9
20260906091952 71 103 0.0 0.9 0.00 0.00 0.00 91 992.9
20260906091450 71 97 0.0 0.9 0.00 0.00 0.00 91 992.8
20260906090951 71 97 0.0 0.9 0.00 0.00 0.00 91 992.8
20260906090450 72 89 0.0 1.7 0.00 0.00 0.00 90 992.8
20260906085951 72 89 0.0 1.7 0.00 0.00 0.00 90 992.9
20260906084952 72 45 0.0 0.9 0.00 0.00 0.00 90 992.8
20260906084451 72 83 0.0 0.9 0.00 0.00 0.00 90 992.9
20260906083951 72 83 0.0 0.9 0.00 0.00 0.00 90 992.9
20260906083450 72 83 0.0 0.9 0.00 0.00 0.00 90 992.9
20260906082951 72 82 0.0 0.0 0.00 0.00 0.00 90 992.9
20260906082450 72 82 0.0 0.9 0.00 0.00 0.00 90 993.0
20260906081951 72 82 0.0 0.9 0.00 0.00 0.00 90 993.0
20260906081449 72 82 0.0 0.0 0.00 0.00 0.00 90 993.0
20260906080950 72 82 0.0 0.0 0.00 0.00 0.00 90 993.0
20260906080449 72 82 0.0 0.9 0.00 0.00 0.00 90 993.0
20260906075950 72 82 0.0 0.9 0.00 0.00 0.00 89 992.9
20260906075449 72 82 0.0 0.9 0.00 0.00 0.00 89 992.9
20260906074949 72 83 0.0 0.9 0.00 0.00 0.00 89 992.9
20260906074448 72 82 0.0 1.7 0.00 0.00 0.00 89 992.8
20260906073950 72 82 0.0 1.7 0.00 0.00 0.00 89 992.9
20260906073449 72 85 0.0 1.7 0.00 0.00 0.00 89 992.9
20260906072448 72 97 0.9 1.7 0.00 0.00 0.00 90 992.9
20260906071949 72 97 0.0 1.7 0.00 0.00 0.00 90 992.9
20260906071448 72 55 0.0 0.9 0.00 0.00 0.00 91 992.8
20260906070447 72 72 0.0 1.7 0.00 0.00 0.00 91 992.8
20260906065949 72 58 0.0 1.7 0.00 0.00 0.00 92 992.9
20260906065447 72 86 0.0 1.7 0.00 0.00 0.00 92 992.9
20260906064949 72 87 0.0 1.7 0.00 0.00 0.00 93 993.0
20260906064447 72 87 0.0 1.7 0.00 0.00 0.00 93 993.0
20260906063948 72 99 0.9 1.7 0.00 0.00 0.00 93 993.1
20260906062948 72 76 0.0 1.7 0.00 0.00 0.00 93 993.0
20260906062446 72 96 0.0 2.6 0.00 0.00 0.00 93 993.0
20260906061948 72 96 0.0 2.6 0.00 0.00 0.00 93 993.0
20260906060949 72 69 0.9 1.7 0.00 0.00 0.00 93 993.0
20260906060446 73 96 0.0 1.7 0.00 0.00 0.00 92 992.9
20260906055447 73 102 0.0 0.9 0.00 0.00 0.00 92 992.9
20260906054948 72 83 0.0 0.9 0.00 0.00 0.00 92 992.7
20260906054447 72 65 0.0 0.9 0.00 0.00 0.00 92 992.6
20260906053947 72 80 0.0 0.9 0.00 0.00 0.00 92 992.5
20260906053446 72 76 0.0 1.7 0.00 0.00 0.00 92 992.5
20260906052945 72 55 0.0 2.6 0.00 0.00 0.00 92 992.5
20260906051947 73 94 0.9 2.6 0.00 0.00 0.00 92 992.3
20260906050946 73 45 1.7 3.5 0.00 0.00 0.00 92 992.4
20260906050445 73 52 0.9 3.5 0.00 0.00 0.00 91 992.4
20260906045445 73 65 0.9 3.5 0.00 0.00 0.00 91 992.1
20260906044445 73 0 1.7 5.2 0.00 0.00 0.00 91 992.0
20260906043946 73 34 1.7 3.5 0.00 0.00 0.00 91 992.1
20260906043444 73 30 0.9 4.3 0.00 0.00 0.00 91 992.1
20260906042945 73 96 1.7 4.3 0.00 0.00 0.00 91 992.0
20260906042444 73 92 0.9 5.2 0.00 0.00 0.00 91 991.9
20260906041945 73 86 2.6 5.2 0.00 0.00 0.00 91 992.0
20260906041444 73 55 2.6 7.8 0.00 0.00 0.00 91 992.0
20260906040946 73 85 1.7 7.8 0.00 0.00 0.00 91 992.0
20260906035443 73 85 1.7 9.6 0.00 0.00 0.00 91 991.9
20260906034944 73 103 3.5 9.6 0.00 0.00 0.00 91 991.9
20260906034444 74 266 1.7 5.2 0.00 0.00 0.00 91 991.8
20260906033945 74 44 1.7 5.2 0.00 0.00 0.00 91 991.8
20260906033443 74 259 2.6 6.1 0.00 0.00 0.00 91 991.8
20260906032944 74 261 1.7 6.1 0.00 0.00 0.00 90 991.8
20260906032443 74 51 0.9 5.2 0.00 0.00 0.00 90 991.7
20260906031944 74 180 1.7 4.3 0.00 0.00 0.00 90 991.6
20260906031443 74 72 1.7 5.2 0.00 0.00 0.00 91 991.6
20260906030944 74 20 1.7 5.2 0.00 0.00 0.00 91 991.6
20260906030443 74 121 1.7 3.5 0.00 0.00 0.00 91 991.6
20260906025943 74 90 1.7 4.3 0.00 0.00 0.00 91 991.7
20260906025442 74 240 1.7 5.2 0.00 0.00 0.00 91 991.7
20260906024943 74 255 1.7 5.2 0.00 0.00 0.00 91 991.7
20260906023942 74 17 1.7 5.2 0.00 0.00 0.00 91 991.8
20260906023442 74 144 1.7 3.5 0.00 0.00 0.00 91 991.8
20260906022943 74 106 0.9 5.2 0.00 0.00 0.00 91 991.9
20260906021942 73 306 0.9 5.2 0.00 0.00 0.00 91 991.9
20260906021442 73 93 1.7 5.2 0.00 0.00 0.00 91 991.9
20260906020942 73 54 1.7 5.2 0.00 0.00 0.00 91 991.9
20260906020441 73 168 0.9 5.2 0.00 0.00 0.00 90 992.0
20260906015942 73 96 1.7 3.5 0.00 0.00 0.00 90 992.0
20260906015441 73 87 0.9 3.5 0.00 0.00 0.00 90 991.9
20260906014942 73 130 0.0 5.2 0.00 0.00 0.00 89 992.0
20260906014440 73 118 0.9 5.2 0.00 0.00 0.00 88 991.9
20260906013942 73 102 0.9 4.3 0.00 0.00 0.00 88 991.8
20260906013441 73 100 1.7 4.3 0.00 0.00 0.00 87 991.6
20260906012941 73 114 0.9 5.2 0.00 0.00 0.00 87 991.5
20260906012440 73 123 0.9 7.8 0.00 0.00 0.00 87 991.5
20260906011942 73 238 0.9 7.8 0.00 0.00 0.00 88 991.5
20260906011440 73 116 0.9 4.3 0.00 0.00 0.00 88 991.4
20260906010941 73 111 0.9 5.2 0.00 0.00 0.00 89 991.3
20260906010441 73 285 1.7 6.1 0.00 0.00 0.00 89 991.3
20260906005941 73 231 2.6 6.1 0.00 0.00 0.00 89 991.2
20260906005440 73 109 1.7 5.2 0.00 0.00 0.00 89 991.1
20260906003941 73 134 2.6 7.8 0.00 0.00 0.00 88 990.8
20260906003440 73 106 1.7 7.8 0.00 0.00 0.00 87 990.9
20260906002941 73 133 1.7 6.1 0.00 0.00 0.00 87 991.0
20260906002439 73 104 1.7 6.1 0.00 0.00 0.00 87 991.1
20260906001940 73 120 1.7 8.7 0.00 0.00 0.00 86 991.0
20260906001439 73 123 2.6 8.7 0.00 0.00 0.00 86 991.1
20260906000940 73 147 1.7 7.8 0.00 0.00 0.00 86 991.0
20260906000437 73 120 2.6 7.8 0.00 0.00 0.00 87 991.1
20260905235940 73 73 0.9 6.1 0.00 0.00 0.00 88 991.0
20260905235438 73 106 1.7 8.7 0.00 0.00 0.00 88 991.0
20260905234940 74 172 2.6 6.1 0.00 0.00 0.00 88 991.0
20260905234438 74 93 1.7 6.1 0.00 0.00 0.00 88 990.9
20260905233939 74 200 1.7 6.1 0.00 0.00 0.00 88 990.9
20260905233437 74 103 2.6 6.1 0.00 0.00 0.00 87 990.9
20260905232939 74 149 1.7 7.8 0.00 0.00 0.00 87 990.9
20260905231939 75 155 2.6 7.8 0.00 0.00 0.00 87 990.9
20260905231437 75 258 2.6 7.8 0.00 0.00 0.00 87 990.9
20260905230939 75 149 2.6 6.1 0.00 0.00 0.00 86 990.8
20260905230437 75 100 0.9 7.8 0.00 0.00 0.00 86 990.8
20260905225938 75 113 2.6 7.8 0.00 0.00 0.00 85 990.8
20260905225437 75 92 1.7 8.7 0.00 0.00 0.00 86 990.8
20260905224938 75 68 2.6 8.7 0.00 0.00 0.00 86 990.8
20260905224436 76 106 1.7 5.2 0.00 0.00 0.00 85 990.8
20260905223938 76 106 1.7 4.3 0.00 0.00 0.00 85 990.7
20260905222938 76 178 1.7 6.1 0.00 0.00 0.00 85 990.8
20260905222436 76 145 1.7 5.2 0.00 0.00 0.00 85 990.8
20260905221938 76 282 1.7 5.2 0.00 0.00 0.00 85 990.9
20260905221436 76 104 0.9 4.3 0.00 0.00 0.00 84 990.8
20260905220938 76 76 0.9 5.2 0.00 0.00 0.00 84 990.8
20260905220436 76 87 1.7 5.2 0.00 0.00 0.00 84 990.9
20260905215937 76 117 1.7 5.2 0.00 0.00 0.00 84 990.9
20260905215436 76 102 1.7 4.3 0.00 0.00 0.00 83 990.9
20260905214436 76 121 1.7 6.1 0.00 0.00 0.00 84 990.7
20260905213937 76 94 2.6 8.7 0.00 0.00 0.00 83 990.7
20260905213435 77 257 3.5 12.2 0.00 0.00 0.00 82 990.8
20260905212937 77 137 2.6 12.2 0.00 0.00 0.00 82 990.6
20260905211937 77 93 2.6 7.8 0.00 0.00 0.00 81 990.6
20260905211435 78 206 3.5 7.8 0.00 0.00 0.00 81 990.6
20260905210936 78 65 1.7 5.2 0.00 0.00 0.00 80 990.6
20260905210435 78 283 2.6 8.7 0.00 0.00 0.00 80 990.6
20260905205935 79 314 2.6 8.7 0.00 0.00 0.00 80 990.5
20260905204936 79 124 4.3 11.3 0.00 0.00 0.00 79 990.5
20260905204435 79 154 3.5 8.7 0.00 0.00 0.00 79 990.5
20260905203935 80 104 2.6 8.7 0.00 0.00 0.00 79 990.6
20260905202935 78 128 0.9 6.1 0.00 0.00 0.00 81 990.6
20260905202434 78 79 1.7 6.1 0.00 0.00 0.00 81 990.7
20260905201935 78 104 3.5 6.1 0.00 0.00 0.00 81 990.7
20260905201433 78 265 3.5 6.1 0.00 0.00 0.00 81 990.7
20260905200934 79 66 0.9 7.8 0.00 0.00 0.00 81 990.6
20260905200433 79 117 4.3 7.8 0.00 0.00 0.00 80 990.7
20260905195935 79 85 2.6 8.7 0.00 0.00 0.00 79 990.6
20260905195433 80 104 1.7 8.7 0.00 0.00 0.00 79 990.7
20260905194934 80 99 1.7 11.3 0.00 0.00 0.00 78 990.7
20260905194432 80 257 4.3 11.3 0.00 0.00 0.00 77 990.7
20260905193934 81 104 2.6 9.6 0.00 0.00 0.00 75 990.6
20260905193433 82 152 3.5 8.7 0.00 0.00 0.00 75 990.6
20260905192934 82 107 2.6 8.7 0.00 0.00 0.00 75 990.7
20260905191933 82 103 3.5 10.4 0.00 0.00 0.00 75 990.8
20260905191433 82 310 1.7 7.8 0.00 0.00 0.00 75 990.8
20260905190934 82 90 1.7 8.7 0.00 0.00 0.00 74 990.7
20260905190431 82 114 3.5 8.7 0.00 0.00 0.00 74 990.6
20260905185934 82 193 1.7 9.6 0.00 0.00 0.00 74 990.5
20260905185432 83 103 1.7 9.6 0.00 0.00 0.00 73 990.6
20260905184432 83 118 2.6 6.1 0.00 0.00 0.00 73 990.6
20260905183932 83 202 1.7 7.8 0.00 0.00 0.00 75 990.6
20260905183431 82 130 3.5 7.8 0.00 0.00 0.00 74 990.6
20260905182933 82 76 2.6 8.7 0.00 0.00 0.00 73 990.5
20260905182431 82 135 2.6 9.6 0.00 0.00 0.00 73 990.6
20260905181932 82 93 3.5 9.6 0.00 0.00 0.00 75 990.4
20260905181431 82 107 1.7 5.2 0.00 0.00 0.00 75 990.6
20260905180431 82 203 2.6 5.2 0.00 0.00 0.00 74 990.6
20260905175931 83 204 1.7 6.1 0.00 0.00 0.00 74 990.6
20260905174931 84 107 2.6 6.1 0.00 0.00 0.00 72 990.6
20260905174430 85 116 3.5 5.2 0.00 0.00 0.00 70 990.6
20260905173932 85 121 2.6 6.1 0.00 0.00 0.00 71 990.5
20260905173430 84 227 2.6 6.1 0.00 0.00 0.00 70 990.4
20260905172931 85 27 2.6 6.1 0.00 0.00 0.00 69 990.5
20260905170930 85 89 2.6 5.2 0.00 0.00 0.00 71 990.5
20260905170429 85 154 1.7 8.7 0.00 0.00 0.00 73 990.6
20260905165929 84 102 2.6 8.7 0.00 0.00 0.00 71 990.7
20260905163930 84 116 1.7 5.2 0.00 0.00 0.00 74 990.6
20260905163429 84 97 1.7 6.1 0.00 0.00 0.00 75 990.6
20260905162930 84 183 1.7 6.1 0.00 0.00 0.00 75 990.7
20260905162427 84 97 1.7 4.3 0.00 0.00 0.00 77 990.7
20260905161930 84 113 1.7 5.2 0.00 0.00 0.00 77 990.6
20260905161428 83 152 2.6 5.2 0.00 0.00 0.00 78 990.7
20260905160929 84 104 1.7 4.3 0.00 0.00 0.00 80 990.7
20260905154929 82 90 0.9 3.5 0.00 0.00 0.00 82 990.6
20260905154427 82 99 0.9 3.5 0.00 0.00 0.00 83 990.4
20260905153929 82 262 0.9 6.1 0.00 0.00 0.00 83 990.5
20260905153426 82 87 1.7 6.1 0.00 0.00 0.00 82 990.4
20260905152928 82 100 0.9 5.2 0.00 0.00 0.00 83 990.4
20260905152427 82 102 1.7 5.2 0.00 0.00 0.00 82 990.4
20260905151928 82 31 2.6 5.2 0.00 0.00 0.00 82 990.4
20260905151427 83 90 1.7 4.3 0.00 0.00 0.00 81 990.4
20260905150928 83 66 1.7 4.3 0.00 0.00 0.00 81 990.3
20260905150427 82 100 0.0 4.3 0.00 0.00 0.00 82 990.2
20260905145927 82 89 1.7 4.3 0.00 0.00 0.00 82 990.2
20260905145426 82 168 1.7 4.3 0.00 0.00 0.00 81 990.1
20260905144425 84 111 1.7 4.3 0.00 0.00 0.00 79 990.1
20260905143927 84 65 0.9 3.5 0.00 0.00 0.00 81 989.9
20260905143426 83 79 0.0 4.3 0.00 0.00 0.00 83 989.8
20260905142927 82 274 0.9 4.3 0.00 0.00 0.00 84 989.8
20260905142426 82 176 0.9 4.3 0.00 0.00 0.00 84 989.8
20260905141927 82 104 0.9 6.1 0.00 0.00 0.00 83 989.8
20260905141426 83 96 1.7 6.1 0.00 0.00 0.00 84 989.7
20260905140925 82 92 0.9 6.1 0.00 0.00 0.00 84 989.8
20260905140425 82 44 0.0 2.6 0.00 0.00 0.00 84 989.8
20260905135927 82 104 0.9 3.5 0.00 0.00 0.00 84 989.9
20260905135425 82 109 0.0 3.5 0.00 0.00 0.00 84 990.0
20260905134927 82 103 0.9 3.5 0.00 0.00 0.00 84 990.0
20260905134425 82 92 0.9 4.3 0.00 0.00 0.00 83 989.9
20260905133926 82 104 0.9 4.3 0.00 0.00 0.00 86 989.8
20260905133424 81 103 0.9 2.6 0.00 0.00 0.00 87 989.8
20260905132926 81 104 0.9 2.6 0.00 0.00 0.00 88 989.7
20260905132425 80 104 0.0 2.6 0.00 0.00 0.00 90 989.7
20260905131926 80 96 0.9 1.7 0.00 0.00 0.00 90 989.6
20260905131424 79 107 0.0 1.7 0.00 0.00 0.00 92 989.6
20260905130925 78 107 0.0 2.6 0.00 0.00 0.00 92 989.5
20260905130424 78 120 0.9 2.6 0.00 0.00 0.00 92 989.5
20260905125424 78 97 0.0 1.7 0.00 0.00 0.00 93 989.4
20260905124925 78 94 0.0 1.7 0.00 0.00 0.00 94 989.4
20260905124423 77 102 0.9 1.7 0.00 0.00 0.00 94 989.4
20260905123925 77 102 0.0 1.7 0.00 0.00 0.00 94 989.4
20260905123424 77 100 0.0 0.9 0.00 0.00 0.00 94 989.4
20260905122924 77 102 0.0 0.9 0.00 0.00 0.00 95 989.3
20260905122423 76 100 0.0 0.9 0.00 0.00 0.00 95 989.2
20260905121924 76 102 0.0 0.9 0.00 0.00 0.00 95 989.1
20260905121423 76 110 0.0 0.9 0.00 0.00 0.00 96 989.1
20260905120924 76 110 0.0 1.7 0.00 0.00 0.00 98 989.1
20260905120423 76 110 0.0 1.7 0.00 0.00 0.00 98 989.0
20260905115924 75 48 0.0 0.9 0.00 0.00 0.00 98 988.8
20260905114924 75 48 0.0 0.0 0.00 0.00 0.00 98 988.7
20260905114423 75 48 0.0 0.0 0.00 0.00 0.00 98 988.7
20260905113923 75 48 0.0 0.0 0.00 0.00 0.00 98 988.7
20260905113423 75 48 0.0 0.0 0.00 0.00 0.00 98 988.7
20260905112923 75 48 0.0 0.0 0.00 0.00 0.00 98 988.6
20260905112422 75 48 0.0 0.0 0.00 0.00 0.00 98 988.5
20260905110923 74 48 0.0 0.9 0.00 0.00 0.00 98 988.5
20260905105922 74 48 0.0 0.0 0.00 0.00 0.00 98 988.4
20260905105421 74 48 0.0 0.0 0.00 0.00 0.00 98 988.3
20260905104922 74 48 0.0 0.0 0.00 0.00 0.00 98 988.3
20260905104421 74 48 0.0 0.0 0.00 0.00 0.00 98 988.4